Orbital Elements at Epoch 2459000.5 (2020-May-31.0) TDB
Reference: JPL 14 (heliocentric ecliptic J2000)
Element | Value | Uncertainty (1-sigma) | Units |
e | .1537415207851367 | 6.2516e-08 | |
a | 2.196502741835856 | 1.0926e-08 | au |
q | 1.858809069897289 | 1.38e-07 | au |
i | 6.03312646230428 | 5.8082e-06 | deg |
node | 216.8723215764065 | 5.6411e-05 | deg |
peri | 49.2188744635431 | 6.0012e-05 | deg |
M | 212.0918968852792 | 2.027e-05 | deg |
tp | 2459489.023565407454 (2021-Oct-01.52356541) | 6.821e-05 | TDB |
period | 1189.038868345678 3.26 | 8.8721e-06 2.429e-08 | d yr |
n | .3027655441582592 | 2.2591e-09 | deg/d |
Q | 2.534196413774423 | 1.2606e-08 | au |
|
| | Orbit Determination Parameters
Additional Information
|